Boise, ID (83705)

6:33 PM MDT on July 29, 2016 (GMT -0600)
Mesa Vista | | Change Station
Active Advisory: Fire Weather Watch

Elev 2766 ft 43.60 °N, 116.21 °W | Updated 33 seconds ago

Clear
Clear
99.9 °F
Feels Like 95 °F
N
3.4
Wind Variable Wind from North
Gusts 4.9 mph

Today
High -- | Low -- °F
--% Chance of Precip.
Yesterday
High -- | Low -- °F
Precip. -- in
Pressure 29.74 in
Visibility 10.0 miles
Clouds Clear
Heat Index 95 °F
Dew Point 38 °F
Humidity 12%
Rainfall 0.00 in
Snow Depth Not available.
6:31 AM 9:10 PM
Waning Crescent, 18% visible
METAR KBOI 292353Z 34016KT 10SM CLR 38/03 A2985 RMK AO2 SLP070 T03780033 10378 20306 56025
Pressure 29.74 in
Visibility 10.0 miles
Clouds Clear
Heat Index 95 °F
Dew Point 38 °F
Humidity 12%
Rainfall 0.00 in
Snow Depth Not available.
6:31 AM 9:10 PM
Waning Crescent, 18% visible
METAR KBOI 292353Z 34016KT 10SM CLR 38/03 A2985 RMK AO2 SLP070 T03780033 10378 20306 56025

10-Day Weather Forecast

Almanac

Astronomy

Jul. 29, 2016 Rise Set
Actual Time
Civil Twilight
Nautical Twilight
Astronomical Twilight
Moon
Length of Visible Light
Length of Day
Tomorrow will be .
, % of the Moon is Illuminated

Today's Extremes

State Highs State Lows

Community

WunderPhotos

Upload Photos

1,928,452 photos uploaded!

WunderBlog® & News

Nearby

Air Quality

  Air Quality AQ Index Pollutant
Not available.

Snow Depth

Station Depth Elevation

Earthquake Activity

City Distance Mag. Time & Date
Minimum magnitude displayed is 2.5.

Coastal Water Temperatures

Place Temperature

Stations

Nearby Weather Stations

Station Location Temp. Windchill Dew Point Humidity Wind Precip. Elev Updated Type
                   

Watches & Warnings

Fire Weather Watch
Issued: 7:34 AM PDT Jul. 29, 2016 – National Weather Service

... Fire Weather Watch for lightning in effect from Saturday
afternoon through Saturday evening across the Owyhee Mountains
... Southern Highlands and Vale blm... which are fire weather
zones 423 426 and 637...

The National Weather Service in Boise has issued a Fire Weather
Watch for lightning... which is in effect from Saturday afternoon
through Saturday evening.

* Thunderstorms... scattered in coverage. Developing around noon
MDT and continuing into Saturday evening.

* Outflow winds... gusts to 50 mph possible... along with abrupt
shifts in wind direction.

Precautionary/preparedness actions...

A Fire Weather Watch means that critical fire weather conditions
are forecast to occur. Listen for later forecasts and possible
red flag warnings.




L